Regional Weather Roundup
Issued by NWS Newport/Morehead, NC

Current Version | Previous Version | Graphics & Text | Print | Product List | Glossary On
Versions: 1 2 3 4 5 6 7 8 9 10 11 12 13 14 15 16 17 18 19 20 21 22 23 24 25 26 27 28 29 30 31 32 33 34 35 36 37 38 39 40 41 42 43 44 45 46 47 48 49 50
000 ASUS42 KMHX 101413 RWRMHX WEATHER ROUNDUP FOR EASTERN NORTH CAROLINA NATIONAL WEATHER SERVICE NEWPORT/MOREHEAD CITY NC 900 AM EST WED FEB 10 2016 NOTE: "FAIR" INDICATES FEW OR NO CLOUDS BELOW 12,000 FEET WITH NO SIGNIFICANT WEATHER AND/OR OBSTRUCTIONS TO VISIBILITY NCZ015>017-031-032-045>047-102-103-101500- NORTH COAST CITY SKY/WX TMP DP RH WIND PRES REMARKS EDENTON MOSUNNY 34 19 54 W9G21 29.91R ELIZABETH CITY SUNNY 32 17 54 W14 29.89R KITTY HAWK SUNNY 34 20 54 W14G24 29.86R MANTEO SUNNY 33 20 60 NW13G21 29.89R $$ NCZ045>047-081-094-103-104-101500- CENTRAL COAST CITY SKY/WX TMP DP RH WIND PRES REMARKS FRISCO SUNNY 35 19 52 NW17G28 29.91R SWANQUARTER N/A 34 N/A N/A NW15G28 29.88S $$ NCZ095-097-098-100-101-101500- SOUTHERN COAST CITY SKY/WX TMP DP RH WIND PRES REMARKS BEAUFORT SUNNY 34 17 50 W15 29.94S CEDAR ISLAND N/A 34 N/A N/A W26 29.97S JACKSONVILLE SUNNY 34 14 43 NW18 29.95R PINEY ISLAND SUNNY N/A N/A N/A W20G25 29.93R WILMINGTON SUNNY 36 16 44 W14G22 29.97R $$ NCZ011>013-027>030-043-044-078>080-089-090>093-098-101500- COASTAL PLAIN CITY SKY/WX TMP DP RH WIND PRES REMARKS AHOSKIE SUNNY 30 16 54 CALM 29.90R CLINTON MOSUNNY 32 19 58 W8 29.96R ELIZABETHTOWN SUNNY 32 18 56 W10 29.97R GOLDSBORO MOSUNNY 32 14 47 W12G21 29.92R GREENVILLE MOSUNNY 32 18 55 W9G18 29.95R HAVELOCK SUNNY 34 16 47 W15 29.95R KENANSVILLE MOSUNNY 32 16 52 W9 29.96R KINSTON MOSUNNY 32 16 51 W10 29.95R NEW BERN MOSUNNY 33 16 49 W10 29.95R RICHLANDS SUNNY 34 12 40 W9 29.96R ROCKY MOUNT SUNNY 31 16 54 W8 29.93R WASHINGTON MOSUNNY 32 17 52 W7 29.93R WHITEVILLE SUNNY 33 22 65 W6 29.98R $$ AMZ130-135-150-152-154-156-158-170-250-252-270-ANZ085-086-088-633-658-670-101500- MARINE OBSERVATIONS STATION/POSITION TIME TEMP WIND PRES WAVE SWELL AIR SEA DIR/SP/G HT/PER HT/PER (UTC) (F) (DEG/KT/KT) (MB) (FT/S) (FT/S) CHESAPEAKE LIGHT 1300 32 290/ 22/ 24 1010.5 64 E VA BEACH 1350 36 50 290/ 21/ 27 1009.0 8/13 5/13 DUCK 1300 31 290/ 20/ 27 1010.2 2 E DUCK 1311 44 N/A 4/14 3/14 OREGON INLET 1300 31 44 270/ 17/ 22 1011.1 13E OREGON INLT 1400 47 N/A 6/14 5/14 HATTERAS CG 1300 34 50 290/ 23/ 31 1011.6 DIAMOND BUOY 1350 38 73 290/ 25/ 33 1012.1 9/ 6 3/14 CAPE LOOKOUT NOT AVBL BEAUFORT LAB 1300 32 46 290/ 9/ 15 1012.7 30 SE NEW RVR IN 1308 40 59 1013.1 30 SE NEW RVR IN 1325 59 N/A 8/ 8 3/13 27 SE WRIGHTSVLE NOT AVBL 5 SE WRIGHTSVLE 1308 36 51 300/ 16/ 21 1014.1 225 S CAPE HAT 1350 53 68 290/ 31/ 39 N/A 19/10 10/15 41 SE CHARLESTON 1350 39 63 280/ 25/ 39 1016.4 8/ 7 $$

USA.gov is the U.S. government's official web portal to all federal, state and local government web resources and services.